Tracking 31027 objects as of 19-Jul-2025
HD Live streaming from Space Station
objects crossing your sky now

CZ-4 DEB

Track CZ-4 DEB now!
10-day predictions


NORAD ID: 37616
Int'l Code: 1990-081DC
Perigee: 854.5 km
Apogee: 1,003.1 km
Inclination: 98.9 °
Period: 103.4 minutes
Semi major axis: 7299 km
RCS: 0.0129 m2 (small)
Launch date: September 3, 1990
Source: People's Republic of China (PRC)
Launch site: Taiyaun Space Center, China (TSC)

Note: This is SATELLITE DEBRIS
Your satellite tracking list
CZ-3A R/B
Track 1 satellite(s)




NASA's NSSDC Master Catalog

Two Line Element Set (TLE):
1 37616U 90081DC  25198.17528561  .00000281  00000-0  24137-3 0  9992
2 37616  98.8706 182.0366 0101839 100.4996 260.7658 13.91991604670044
Source of the keplerian elements: AFSPC